Regional Weather Roundup
Issued by NWS

Home | Current Version | Previous Version | Text Only | Print | Product List | Glossary Off
Versions: 1 2 3 4 5 6 7 8 9 10 11 12 13 14 15 16 17 18 19 20 21 22 23 24 25 26 27 28 29 30 31 32 33 34 35 36 37 38 39 40 41 42 43 44 45 46 47 48 49 50

075
ASUS43 KFSD 181110
RWRSD

WEATHER ROUNDUP FOR SOUTH DAKOTA
NATIONAL WEATHER SERVICE SIOUX FALLS SD
500 AM CST SAT NOV 18 2017

NOTE: "FAIR" INDICATES FEW OR NO CLOUDS BELOW 12,000 FEET WITH NO
SIGNIFICANT WEATHER AND/OR OBSTRUCTIONS TO VISIBILITY.


SDZ001>005-009-010-012>017-181200-
NORTHWEST AND NORTH CENTRAL SOUTH DAKOTA

CITY           SKY/WX    TMP DP  RH WIND       PRES   REMARKS
BUFFALO          N/A     26  21  81 NW15      29.92R WCI  14
FAITH            N/A     30  27  88 W14       29.96R WCI  19
MOBRIDGE       CLEAR     31  26  82 NW15      29.90R WCI  20
$$

SDZ012>016-024>037-041>051-057-063-072>074-181200-
SOUTHWEST AND SOUTH CENTRAL SOUTH DAKOTA

CITY           SKY/WX    TMP DP  RH WIND       PRES   REMARKS
RAPID CTY ARPT MOCLDY    35  21  56 NW17G29   30.01R WCI  25
PIERRE         CLEAR     35  31  85 NW16      29.92R WCI  25
CUSTER         CLEAR     26  15  63 NW8       29.98R WCI  18
ELLSWORTH AFB  MOCLDY    35  21  56 NW18G25   30.00R WCI  24
PHILIP         CLEAR     32  29  88 W15       29.99R WCI  22
PINE RIDGE     CLEAR     20  18  92 SW6       30.03R WCI  12
SPEARFISH      FAIR      32  18  55 W17G25    30.02R WCI  21
WINNER         CLOUDY    40  36  86 W16       29.93R
$$

SDZ004>011-016>023-039-040-181200-
NORTHEAST SOUTH DAKOTA

CITY           SKY/WX    TMP DP  RH WIND       PRES   REMARKS
ABERDEEN       CLEAR     19  17  92 N7        29.89R WCI  10
WATERTOWN      CLOUDY    23  20  88 N7        29.81R WCI  15
BROOKINGS      CLOUDY    28  23  81 NW8       29.83R WCI  20
SISSETON         N/A     21  17  84 N7        29.86R WCI  12
$$

SDZ017-020-022-023-036>040-048>070-181200-
SOUTHEAST SOUTH DAKOTA

CITY           SKY/WX    TMP DP  RH WIND       PRES   REMARKS
SIOUX FALLS    MOCLDY    34  26  72 NW14      29.81R WCI  25
HURON          PTCLDY    25  19  78 N6        29.87S WCI  18
CHAMBERLAIN    CLOUDY    38  37  94 W3        29.90R
MITCHELL       PTCLDY    29  22  75 NW10      29.89R WCI  20
YANKTON        CLOUDY    34  26  72 NW18G24   29.84R WCI  23
$$

ABBREVIATIONS USED IN REMARKS
   TC - TEMPERATURE IN CELSIUS
  WCI - WIND CHILL INDEX
   HX - HEAT INDEX
  VSB - VISIBILITY





USA.gov is the U.S. government's official web portal to all federal, state and local government web resources and services.